Tracking 23114 objects as of 14-May-2021
HD Live streaming from Space Station
objects crossing your sky now

ONEWEB-0217

Track ONEWEB-0217 now!
10-day predictions
ONEWEB-0217 is classified as:


NORAD ID: 48245
Int'l Code: 2021-031AM
Perigee: 475.5 km
Apogee: 483.8 km
Inclination: 87.4 °
Period: 94.0 minutes
Semi major axis: 6850 km
RCS: Unknown
Launch date: April 25, 2021
Source: United Kingdom (UK)
Launch site: VOSTOCHNY COSMODROME (VOSTO)
aabbcc
Your satellite tracking list
Your tracking list is empty




NASA's NSSDC Master Catalog

Two Line Element Set (TLE):
1 48245U 21031AM  21133.83334491 -.01377941  00000-0 -50476-1 0  9992
2 48245  87.4065 306.8203 0006058 203.8844 274.3903 15.31113088  2736
Source of the keplerian elements: AFSPC